Regional Weather Roundup
Issued by NWS

Home | Current Version | Previous Version | Graphics & Text | Print | Product List | Glossary On
Versions: 1 2 3 4 5 6 7 8 9 10 11 12 13 14 15 16 17 18 19 20 21 22 23 24 25 26 27 28 29 30 31 32 33 34 35 36 37 38 39 40 41 42 43 44 45 46 47 48 49 50
551
ASUS43 KOAX 190602
RWRNE

WEATHER ROUNDUP FOR NEBRASKA
NATIONAL WEATHER SERVICE OMAHA NE
100 AM CDT SAT AUG 19 2017

NOTES: SATELLITE DATA IS BEING USED TO AUGMENT CLOUD COVER ABOVE
       12000 FEET.
       "FAIR" INDICATES FEW OR NO CLOUDS BELOW 12,000 FEET WITH NO
       SIGNIFICANT WEATHER AND/OR OBSTRUCTIONS TO VISIBILITY.


NEZ001>004-019>022-054>056-190700-
NEBRASKA PANHANDLE

CITY           SKY/WX    TMP DP  RH WIND       PRES   REMARKS
SCOTTSBLUFF    CLEAR     63  51  65 E9        30.04F
6HR MIN TEMP:  62; 6HR MAX TEMP:  86;

ALLIANCE       CLEAR     62  50  64 S10       30.04F
6HR MIN TEMP:  59; 6HR MAX TEMP:  84;

CHADRON        CLEAR     69  47  45 S9        29.98F
6HR MIN TEMP:  66; 6HR MAX TEMP:  89;

GORDON         FAIR      59  51  76 SE3       30.04S
6HR MIN TEMP:  56; 6HR MAX TEMP:  82;

KIMBALL        CLEAR     61  51  68 S6        30.12F
SIDNEY         CLEAR     59  49  69 S9        30.10S
6HR MIN TEMP:  58; 6HR MAX TEMP:  86;

$$

NEZ057>060-069>072-079>082-190700-
SOUTHWEST NEBRASKA

CITY           SKY/WX    TMP DP  RH WIND       PRES   REMARKS
NORTH PLATTE   CLEAR     62  58  86 E6        30.04R
6HR MIN TEMP:  62; 6HR MAX TEMP:  86;

IMPERIAL       CLEAR     68  55  63 S9        30.05F
6HR MIN TEMP:  66; 6HR MAX TEMP:  87;

LEXINGTON      CLEAR     64  60  88 CALM      30.03S
MCCOOK         CLEAR     65  58  78 SW8       30.02S
6HR MIN TEMP:  65; 6HR MAX TEMP:  86;

OGALLALA       CLEAR     68  52  56 W3        30.04S
$$

NEZ005>010-023>029-035>040-094-190700-
NORTH CENTRAL NEBRASKA

CITY           SKY/WX    TMP DP  RH WIND       PRES   REMARKS
VALENTINE      CLEAR     65  53  65 E6        30.02S
6HR MIN TEMP:  65; 6HR MAX TEMP:  85;

AINSWORTH      CLEAR     61  57  85 S6        30.03S
BROKEN BOW     CLEAR     61  58  90 N3        30.03F
6HR MIN TEMP:  60; 6HR MAX TEMP:  87;

O`NEILL        CLEAR     60  59  97 CALM      30.02S
ORD            CLEAR     60  56  86 CALM      30.02S
6HR MIN TEMP:  60; 6HR MAX TEMP:  81;

THEDFORD       CLEAR     62  57  82 SE6       30.07S
$$

NEZ041-046>049-061>064-073>077-083>087-190700-
SOUTH CENTRAL NEBRASKA

CITY           SKY/WX    TMP DP  RH WIND       PRES   REMARKS
GRAND ISLAND   CLEAR     65  63  93 NE5       30.02R
6HR MIN TEMP:  65; 6HR MAX TEMP:  82;

AURORA         CLEAR     66  64  94 N3        30.01S
HASTINGS       CLEAR     67  62  84 NE5       30.02S
6HR MIN TEMP:  67; 6HR MAX TEMP:  83;

HEBRON         CLEAR     64  62  95 CALM      29.98S
HOLDREGE       CLEAR     64  59  83 CALM      30.02R
KEARNEY        CLEAR     65  62  90 N5        30.03R
YORK           CLEAR     66  66 100 CALM      30.00S
$$

NEZ011>018-030>034-042>045-190700-
NORTHEAST NEBRASKA

CITY           SKY/WX    TMP DP  RH WIND       PRES   REMARKS
NORFOLK        CLEAR     64  58  80 CALM      29.98F
6HR MIN TEMP:  60; 6HR MAX TEMP:  81;

ALBION         CLEAR     62  60  93 CALM      30.02S
BLAIR          CLEAR     69  62  78 N10       29.96S
COLUMBUS       CLEAR     64  60  87 NW3       30.00S
FREMONT        CLEAR     66  62  87 NW3       29.98S
TEKAMAH        CLEAR     64  60  87 NW7       29.95S
6HR MIN TEMP:  64; 6HR MAX TEMP:  81;

WAYNE          CLEAR     57  55  91 CALM      29.97F
$$

NEZ050>053-065>068-078-088>093-190700-
SOUTHEAST NEBRASKA

CITY           SKY/WX    TMP DP  RH WIND       PRES   REMARKS
LINCOLN        CLEAR     68  65  90 CALM      29.97S
6HR MIN TEMP:  68; 6HR MAX TEMP:  84;

OMAHA EPPLEY   PTCLDY    70  62  76 N10       29.94R
6HR MIN TEMP:  68; 6HR MAX TEMP:  86;

BEATRICE       CLEAR     64  62  94 CALM      29.97S
FALLS CITY     CLEAR     66  64  93 N3        29.94R
6HR MIN TEMP:  66; 6HR MAX TEMP:  84;

NEBRASKA CITY  CLEAR     66  66 100 S5        29.96R
PLATTSMOUTH    CLEAR     69  65  86 NW6       29.96R
$$

NEZ044-045-051>053-067-190700-
OMAHA AREA

CITY           SKY/WX    TMP DP  RH WIND       PRES   REMARKS
OMAHA EPPLEY   PTCLDY    70  62  76 N10       29.94R
6HR MIN TEMP:  68; 6HR MAX TEMP:  86;

BLAIR          CLEAR     69  62  78 N10       29.96S
FREMONT        CLEAR     66  62  87 NW3       29.98S
MILLARD        CLEAR     75  65  69 NW7       29.95R
OFFUTT AFB     CLEAR     64  62  93 CALM      29.93S
PLATTSMOUTH    CLEAR     69  65  86 NW6       29.96R
WAHOO          FAIR      67  64  91 N8        29.97S
$$




USA.gov is the U.S. government's official web portal to all federal, state and local government web resources and services.